Terminal Aerodrome Forecast
Issued by NWS

Home | Current Version | Previous Version | Text Only | Print | Product List | Glossary On
Versions: 1 2 3 4 5 6 7 8 9 10 11 12 13 14 15
000
FTUS43 KGLD 220127 AAA
TAFMCK
TAF AMD
KMCK 220127Z 2201/2224 VRB06KT P6SM VCTS SCT100CB SCT200
     FM220500 30009KT P6SM SCT100 SCT200
     FM221000 05009KT P6SM SCT100 SCT200
     FM221800 08011KT P6SM SCT100 SCT200=

USA.gov is the U.S. government's official web portal to all federal, state and local government web resources and services.